Location: Unspecified
(37.6100°N, 2.7800°W)
Time: 00:53:00
(UTC+00:00)

Tiangong 2 - Visible Passes

Search period start: 17 January 2018 00:00
Search period end: 27 January 2018 00:00
Orbit: 384 x 390 km, 42.8° (Epoch: 16 January)

Date Brightness Start Highest point End Pass type
(mag) Time Alt. Az. Time Alt. Az. Time Alt. Az.
17 Jan 1.6 06:30:27 10° SW 06:33:35 60° SSE 06:36:45 10° ENE visible
18 Jan 2.5 05:34:29 30° SSE 05:34:59 32° SSE 05:37:53 10° E visible
19 Jan 1.0 06:11:23 27° WSW 06:12:59 76° NNW 06:16:10 10° ENE visible
20 Jan 3.2 05:15:46 27° E 05:15:46 27° E 05:17:26 10° ENE visible
20 Jan 1.9 06:48:13 10° W 06:51:13 36° N 06:54:13 10° ENE visible
21 Jan 1.4 05:52:19 48° NNW 05:52:24 48° NNW 05:55:31 10° ENE visible
22 Jan 4.4 04:56:27 13° ENE 04:56:27 13° ENE 04:56:49 10° ENE visible
22 Jan 2.2 06:28:44 16° WNW 06:30:43 31° N 06:33:37 10° ENE visible
23 Jan 2.7 05:32:48 28° NNE 05:32:48 28° NNE 05:34:50 10° ENE visible
24 Jan 2.3 06:09:04 24° NW 06:10:11 30° N 06:13:04 10° ENE visible
25 Jan 3.6 05:13:03 18° NE 05:13:03 18° NE 05:14:12 10° ENE visible
25 Jan 1.9 06:45:27 10° WNW 06:48:31 42° NNE 06:51:34 10° E visible
26 Jan 2.1 05:49:17 32° N 05:49:38 33° N 05:52:35 10° ENE visible
